Regional Weather Roundup
Issued by NWS Newport/Morehead, NC

Current Version | Previous Version | Graphics & Text | Print | Product List | Glossary Off
Versions: 1 2 3 4 5 6 7 8 9 10 11 12 13 14 15 16 17 18 19 20 21 22 23 24 25 26 27 28 29 30 31 32 33 34 35 36 37 38 39 40 41 42 43 44 45 46 47 48 49 50

000
ASUS42 KMHX 100324
RWRMHX
WEATHER ROUNDUP FOR EASTERN NORTH CAROLINA
NATIONAL WEATHER SERVICE NEWPORT/MOREHEAD CITY NC
1000 PM EST FRI DEC 09 2016

NOTE: "FAIR" INDICATES FEW OR NO CLOUDS BELOW 12,000 FEET
WITH NO SIGNIFICANT WEATHER AND/OR OBSTRUCTIONS TO VISIBILITY

NCZ015>017-031-032-045>047-102-103-100400-
NORTH COAST

CITY           SKY/WX    TMP DP  RH WIND       PRES   REMARKS
EDENTON        CLEAR     30  23  75 CALM      30.45S
ELIZABETH CITY CLEAR     28  19  69 W7        30.43R
KITTY HAWK     CLEAR     37  23  57 W6        30.41S
MANTEO         CLEAR     37  17  44 N8        30.43S

$$

NCZ045>047-081-094-103-104-100400-
CENTRAL COAST

CITY           SKY/WX    TMP DP  RH WIND       PRES   REMARKS
FRISCO         CLEAR     39  19  44 VRB6      30.42S

$$

NCZ095-097-098-100-101-100400-
SOUTHERN COAST

CITY           SKY/WX    TMP DP  RH WIND       PRES   REMARKS
BEAUFORT       CLEAR     35  22  58 N7        30.45R
CEDAR ISLAND   NOT AVBL
JACKSONVILLE   CLEAR     30  23  75 W3        30.46R
PINEY ISLAND   CLEAR    N/A N/A N/A N9        30.44R
WILMINGTON     CLEAR     30  24  78 CALM      30.47R


$$

NCZ011>013-027>030-043-044-078>080-089-090>093-098-100400-
COASTAL PLAIN

CITY           SKY/WX    TMP DP  RH WIND       PRES   REMARKS
AHOSKIE        CLEAR     26  19  75 CALM      30.46R
CLINTON        CLEAR     29  24  79 CALM      30.48R
ELIZABETHTOWN  CLEAR     30  24  81 CALM      30.48R
GOLDSBORO      CLEAR     32  16  51 CALM      30.44S
GREENVILLE     CLEAR     28  27  93 CALM      30.45S
HAVELOCK       CLEAR     34  21  59 NW7       30.45S
KENANSVILLE    CLEAR     23  21  93 CALM      30.47R
KINSTON        CLEAR     25  21  86 CALM      30.46S
NEW BERN       CLEAR     30  21  69 CALM      30.46R
RICHLANDS      CLEAR     25  22  88 CALM      30.47R
ROCKY MOUNT    CLEAR     30  18  60 NW5       30.47R
WASHINGTON     CLEAR     28  20  75 CALM      30.45F
WHITEVILLE     CLEAR     31  26  83 CALM      30.47R

$$

AMZ130-135-150-152-154-156-158-170-250-252-270-ANZ085-086-088-633-658-670-100400-
MARINE OBSERVATIONS

STATION/POSITION TIME  TEMP    WIND        PRES    WAVE   SWELL
                       AIR SEA DIR/SP/G            HT/PER HT/PER
                 (UTC) (F)     (DEG/KT/KT) (MB)    (FT/S) (FT/S)
CHESAPEAKE LIGHT NOT AVBL
64 E VA BEACH    0250   43 58  330/ 21/ 27 1028.1    6/ 6   2/15
DUCK             0300   38 52  310/ 13/ 17 1029.4
2 E DUCK         NOT AVBL
OREGON INLET     0300   38 51  320/  9/ 11 1030.1
13E OREGON INLT  NOT AVBL
HATTERAS CG      0300   40 54  340/ 17/ 19 1029.6
DIAMOND BUOY     0250   43 77  360/ 17/ 23 1029.6    5/10   3/10
CAPE LOOKOUT     0300   39     350/ 10/ 13 1030.4
BEAUFORT LAB     0300   37 51  340/  5/  8 1029.7
30 SE NEW RVR IN 0308   43 69  360/ 12/ 21 1030.6
30 SE NEW RVR IN 0243      69                N/A     3/ 9
27 SE WRIGHTSVLE 0308   43 68  350/ 14/ 25 1030.6
5 SE WRIGHTSVLE  0308   38 60   10/ 16/ 29 1030.6
225 S CAPE HAT   0250   58 73  360/ 12/ 17 1026.8    6/ 7   5/ 7
41 SE CHARLESTON 0250   49 70   10/ 16/ 19 1030.2    4/ 6

$$




USA.gov is the U.S. government's official web portal to all federal, state and local government web resources and services.